Triuchirapalli, India

1:28 PM IST on September 18, 2019 (GMT +0530)
Tiruchirappalli

Weather History for VOTR - July, 2019

Change the Weather History Date:

Saturday, July 27, 2019

  Actual Average Record
Temperature  
Mean Temperature 88 °F -  
Max Temperature 96 °F 92 °F 104 °F (2017)
Min Temperature 79 °F 79 °F 76 °F (2016)
Cooling Degree Days 22    
Growing Degree Days 38 (Base 50)    
Moisture  
Dew Point 68 °F    
Average Humidity 52    
Maximum Humidity 74    
Minimum Humidity 26    
Precipitation  
Precipitation 0.00 in - - ()
Sea Level Pressure  
Sea Level Pressure 29.72 in    
Wind  
Wind Speed 8 mph ()    
Max Wind Speed 14 mph    
Max Gust Speed -    
Visibility 3.6 miles    
Events      
Averages and records for this station are not official NWS values.
T = Trace of Precipitation, MM = Missing Value Source: Averaged Metar Reports

Daily Weather History Graph

Daily Weather History Graph

Search for Another Location

Airport or City:

Astronomy

Jul. 27, 2019 Rise Set
Actual Time 6:02 AM IST 6:40 PM IST
Civil Twilight 5:40 AM IST 7:02 PM IST
Nautical Twilight 5:14 AM IST 7:29 PM IST
Astronomical Twilight 4:47 AM IST 7:55 PM IST
Moon 1:18 AM IST (7/27) 2:07 PM IST (7/27)
Length of Visible Light 13h 22m
Length of Day
12h 37m
Waning Crescent, 28% of the Moon is Illuminated
Jul 27
Waning Crescent
Aug 1
New
Aug 7
First Quarter
Aug 15
Full
Aug 23
Last Quarter

Hourly Weather History & Observations

Time (IST) Temp. Heat Index Dew Point Humidity Pressure Visibility Wind Dir Wind Speed Gust Speed Precip Events Conditions
12:00 AM 84.2 °F 86.6 °F 66.2 °F 55% 29.77 in 3.7 mi West 9.2 mph - N/A   Scattered Clouds
12:30 AM 84.2 °F 87.3 °F 68.0 °F 58% 29.74 in 3.7 mi West 6.9 mph - N/A   Scattered Clouds
1:00 AM 84.2 °F 86.6 °F 66.2 °F 55% 29.74 in 3.7 mi West 6.9 mph - N/A   Scattered Clouds
1:30 AM 82.4 °F 85.4 °F 68.0 °F 62% 29.74 in 3.7 mi West 6.9 mph - N/A   Partly Cloudy
2:00 AM 82.4 °F 85.4 °F 68.0 °F 62% 29.71 in 3.7 mi West 6.9 mph - N/A   Partly Cloudy
2:30 AM 82 °F - 69 °F 56% 29.72 in 2 mi WNW 6.9 mph - -   Haze
2:30 AM 82.4 °F 85.4 °F 68.0 °F 62% 29.71 in 3.7 mi WNW 6.9 mph - N/A   Partly Cloudy
3:00 AM 82.4 °F 85.4 °F 68.0 °F 62% 29.71 in 3.7 mi WNW 8.1 mph - N/A   Partly Cloudy
3:30 AM 82.4 °F 85.4 °F 68.0 °F 62% 29.71 in 3.7 mi WNW 9.2 mph - N/A   Partly Cloudy
4:00 AM 82.4 °F 85.4 °F 68.0 °F 62% 29.71 in 3.7 mi WNW 6.9 mph - N/A   Scattered Clouds
4:30 AM 82.4 °F 85.4 °F 68.0 °F 62% 29.71 in 3.7 mi West 6.9 mph - N/A   Scattered Clouds
5:00 AM 80.6 °F 83.2 °F 68.0 °F 65% 29.71 in 3.7 mi West 9.2 mph - N/A   Scattered Clouds
5:30 AM 80 °F - 69 °F 62% 29.71 in 2 mi West 5.8 mph - -   Haze
5:30 AM 80.6 °F 83.9 °F 69.8 °F 70% 29.71 in 3.7 mi West 5.8 mph - N/A   Scattered Clouds
6:00 AM 78.8 °F - 69.8 °F 74% 29.71 in 3.7 mi West 5.8 mph - N/A   Scattered Clouds
6:30 AM 80.6 °F 83.9 °F 69.8 °F 70% 29.71 in 3.7 mi West 6.9 mph - N/A   Mostly Cloudy
7:00 AM 80.6 °F 83.9 °F 69.8 °F 70% 29.74 in 3.7 mi WNW 5.8 mph - N/A   Mostly Cloudy
7:30 AM 82.4 °F 86.3 °F 69.8 °F 66% 29.74 in 3.7 mi WNW 6.9 mph - N/A   Mostly Cloudy
8:00 AM 82.4 °F 85.4 °F 68.0 °F 62% 29.74 in 3.7 mi WNW 9.2 mph - N/A   Mostly Cloudy
8:30 AM 82 °F - 70 °F 59% 29.75 in 2 mi West 9.2 mph - -   Haze
8:30 AM 82.4 °F 86.3 °F 69.8 °F 66% 29.74 in 3.7 mi West 9.2 mph - N/A   Mostly Cloudy
9:00 AM 84.2 °F 88.4 °F 69.8 °F 62% 29.77 in 3.7 mi WNW 9.2 mph - N/A   Mostly Cloudy
9:30 AM 84.2 °F 88.4 °F 69.8 °F 62% 29.77 in 3.7 mi West 13.8 mph - N/A   Mostly Cloudy
10:00 AM 86.0 °F 89.4 °F 68.0 °F 55% 29.77 in 3.7 mi WNW 13.8 mph - N/A   Mostly Cloudy
10:30 AM 87.8 °F 91.4 °F 68.0 °F 52% 29.77 in 3.7 mi West 13.8 mph - N/A   Mostly Cloudy
11:00 AM 89.6 °F 93.4 °F 68.0 °F 49% 29.74 in 3.7 mi West 13.8 mph - N/A   Mostly Cloudy
11:30 AM 90 °F - 67 °F 38% 29.73 in 2 mi West 13.8 mph - -   Haze
11:30 AM 89.6 °F 93.4 °F 68.0 °F 49% 29.74 in 3.7 mi West 13.8 mph - N/A   Mostly Cloudy
12:00 PM 91.4 °F 95.4 °F 68.0 °F 46% 29.71 in 3.7 mi WSW 13.8 mph - N/A   Mostly Cloudy
12:30 PM 91.4 °F 94.0 °F 66.2 °F 43% 29.71 in 3.7 mi WNW 11.5 mph - N/A   Mostly Cloudy
1:00 PM 93.2 °F 96.2 °F 66.2 °F 41% 29.71 in 3.7 mi West 13.8 mph - N/A   Mostly Cloudy
1:30 PM 93.2 °F 96.2 °F 66.2 °F 41% 29.71 in 3.7 mi WSW 13.8 mph - N/A   Mostly Cloudy
2:00 PM 95.0 °F 97.0 °F 64.4 °F 36% 29.68 in 3.7 mi WNW 13.8 mph - N/A   Mostly Cloudy
2:30 PM 96 °F - 71 °F 35% 29.67 in 2 mi West 11.5 mph - -   Haze
2:30 PM 95.0 °F 103.2 °F 71.6 °F 47% 29.68 in 5.0 mi West 11.5 mph - N/A   Mostly Cloudy
3:00 PM 96.8 °F 103.1 °F 69.8 °F 41% 29.68 in 5.0 mi West 11.5 mph - N/A   Mostly Cloudy
3:30 PM 96.8 °F 103.1 °F 69.8 °F 41% 29.65 in 5.0 mi NW 9.2 mph - N/A   Mostly Cloudy
4:00 PM 96.8 °F 103.1 °F 69.8 °F 41% 29.65 in 5.0 mi West 10.4 mph - N/A   Mostly Cloudy
4:30 PM 96.8 °F 101.8 °F 68.0 °F 39% 29.65 in 5.0 mi West 10.4 mph - N/A   Mostly Cloudy
5:00 PM 95.0 °F 98.5 °F 66.2 °F 39% 29.65 in 5.0 mi West 11.5 mph - N/A   Mostly Cloudy
5:30 PM 96 °F - 64 °F 26% 29.66 in 2 mi WNW 13.8 mph - -   Haze
5:30 PM 95.0 °F 97.0 °F 64.4 °F 36% 29.65 in 5.0 mi WNW 13.8 mph - N/A   Mostly Cloudy
6:00 PM 95.0 °F 97.0 °F 64.4 °F 36% 29.68 in 4.3 mi West 10.4 mph - N/A   Mostly Cloudy
6:30 PM 95.0 °F 97.0 °F 64.4 °F 36% 29.68 in 4.3 mi West 10.4 mph - N/A   Mostly Cloudy
7:00 PM 93.2 °F 96.2 °F 66.2 °F 41% 29.71 in 3.7 mi SW 6.9 mph - N/A   Mostly Cloudy
7:30 PM 91.4 °F 94.0 °F 66.2 °F 43% 29.71 in 3.7 mi WSW 6.9 mph - N/A   Mostly Cloudy
8:00 PM 91.4 °F 94.0 °F 66.2 °F 43% 29.71 in 3.7 mi SW 5.8 mph - N/A   Scattered Clouds
8:30 PM 90 °F - 68 °F 39% 29.73 in 2 mi SW 5.8 mph - -   Haze
8:30 PM 89.6 °F 93.4 °F 68.0 °F 49% 29.74 in 3.7 mi SW 5.8 mph - N/A   Scattered Clouds
9:00 PM 89.6 °F 93.4 °F 68.0 °F 49% 29.74 in 3.7 mi West 6.9 mph - N/A   Scattered Clouds
10:00 PM 87.8 °F 92.6 °F 69.8 °F 55% 29.74 in 3.7 mi West 5.8 mph - N/A   Scattered Clouds
10:30 PM 87.8 °F 92.6 °F 69.8 °F 55% 29.77 in 3.7 mi West 5.8 mph - N/A   Scattered Clouds
11:30 PM 87 °F - 68 °F 44% 29.75 in 2 mi WSW 4.6 mph - -   Haze
11:30 PM 87.8 °F 91.4 °F 68.0 °F 52% 29.74 in 3.7 mi WSW 4.6 mph - N/A   Scattered Clouds